Regional Weather Roundup
Issued by NWS

Home | Current Version | Previous Version | Graphics & Text | Print | Product List | Glossary On
Versions: 1 2 3 4 5 6 7 8 9 10 11 12 13 14 15 16 17 18 19 20 21 22 23 24 25 26 27 28 29 30 31 32 33 34 35 36 37 38 39 40 41 42 43 44 45 46 47 48 49 50
286
ASUS43 KFSD 210710
RWRSD

WEATHER ROUNDUP FOR SOUTH DAKOTA
NATIONAL WEATHER SERVICE SIOUX FALLS SD
200 AM CDT SAT OCT 21 2017

NOTE: "FAIR" INDICATES FEW OR NO CLOUDS BELOW 12,000 FEET WITH NO
SIGNIFICANT WEATHER AND/OR OBSTRUCTIONS TO VISIBILITY.


SDZ001>005-009-010-012>017-210800-
NORTHWEST AND NORTH CENTRAL SOUTH DAKOTA

CITY           SKY/WX    TMP DP  RH WIND       PRES   REMARKS
BUFFALO          N/A     50  37  61 W33G44    29.43R
FAITH            N/A     57  43  59 NW25G37   29.42R
MOBRIDGE       PTCLDY    63  53  70 S7        29.33R
$$

SDZ012>016-024>037-041>051-057-063-072>074-210800-
SOUTHWEST AND SOUTH CENTRAL SOUTH DAKOTA

CITY           SKY/WX    TMP DP  RH WIND       PRES   REMARKS
RAPID CTY ARPT LGT RAIN  56  41  57 N9G22     29.56R
PIERRE         CLOUDY    62  53  72 S8        29.35S
CUSTER         LGT RAIN  48  36  63 W7        29.60R
ELLSWORTH AFB  LGT RAIN  57  39  51 N14       29.54
PHILIP         LGT RAIN  64  47  53 NW20      29.41R
PINE RIDGE     MOCLDY    65  34  31 NW22G33   29.51R
SPEARFISH      FAIR      52  36  54 W12G22    29.58R
WINNER         FAIR      67  56  67 S22G30    29.38F
$$

SDZ004>011-016>023-039-040-210800-
NORTHEAST SOUTH DAKOTA

CITY           SKY/WX    TMP DP  RH WIND       PRES   REMARKS
ABERDEEN       CLEAR     65  58  78 S15       29.37F
WATERTOWN      PTCLDY    64  58  80 S22       29.47R
BROOKINGS      CLOUDY    65  57  75 S23G31    29.51S
SISSETON         N/A     69  59  70 S22G30    29.42S
$$

SDZ017-020-022-023-036>040-048>070-210800-
SOUTHEAST SOUTH DAKOTA

CITY           SKY/WX    TMP DP  RH WIND       PRES   REMARKS
SIOUX FALLS    MOCLDY    67  58  72 S20G26    29.55R
HURON          PTCLDY    67  58  72 S17G24    29.42S
CHAMBERLAIN    PTCLDY    67  59  74 S15G22    29.40S
MITCHELL       CLOUDY    69  58  67 S23G30    29.45S
YANKTON        PTCLDY    66  57  72 SE15      29.53F
$$

ABBREVIATIONS USED IN REMARKS
   TC - TEMPERATURE IN CELSIUS
  WCI - WIND CHILL INDEX
   HX - HEAT INDEX
  VSB - VISIBILITY





USA.gov is the U.S. government's official web portal to all federal, state and local government web resources and services.